Regional Weather Roundup
Issued by NWS

Home | Current Version | Previous Version | Graphics & Text | Print | Product List | Glossary On
Versions: 1 2 3 4 5 6 7 8 9 10 11 12 13 14 15 16 17 18 19 20 21 22 23 24 25 26 27 28 29 30 31 32 33 34 35 36 37 38 39 40 41 42 43 44 45 46 47 48 49 50
000
ASUS43 KLOT 280100
RWRIL

ILLINOIS REGIONAL WEATHER ROUNDUP
NATIONAL WEATHER SERVICE CHICAGO/ROMEOVILLE IL
800 PM CDT MON JUL 27 2015

NOTE: "FAIR" INDICATES FEW OR NO CLOUDS BELOW 12,000 FEET WITH NO
SIGNIFICANT WEATHER AND/OR OBSTRUCTIONS TO VISIBILITY.

* THESE STATIONS ARE NOT UNDER NWS QUALITY CONTROL. THEY ALSO MAY NOT
  REPORT WEATHER SUCH AS PRECIPITATION OR FOG.

ILZ001-002-007-009-015-016-024-280200-
NORTHWEST ILLINOIS

CITY           SKY/WX    TMP DP  RH WIND       PRES   REMARKS
MOLINE         CLOUDY    80  74  81 S3        29.95F HX  85
STERLING*      CLOUDY    79  73  83 E5        29.96S HX  82
$$

ILZ003-004-008-010-011-017-018-280200-
NORTH CENTRAL ILLINOIS

CITY           SKY/WX    TMP DP  RH WIND       PRES   REMARKS
ROCKFORD       CLOUDY    80  62  54 E9        29.99S HX  81
$$

ILZ005-006-012>014-019>023-280200-
NORTHEAST ILLINOIS

CITY           SKY/WX    TMP DP  RH WIND       PRES   REMARKS
CHICAGO-OHARE  CLOUDY    79  64  60 NE10      29.99R HX  81
CHICAGO-MIDWAY CLOUDY    83  61  47 NE9       29.98S HX  83
AURORA         CLOUDY    80  63  55 SE6       29.99R HX  81
WAUKEGAN       MOCLDY    72  63  73 NE6       30.00R
DUPAGE AIRPORT CLOUDY    80  62  54 E8        29.99R HX  81
WHEELING       CLOUDY    77  63  61 E7        30.00S
NORTHERLY ISL    N/A     75  67  76 N6          N/A
$$

LMZ740>746-280200-
SOUTHERN LAKE MICHIGAN

STATION/POSITION SKY/WX   TEMP    WIND        PRES    VSBY  WAVE
                          AIR SEA DIR/SP/G                  HT/PER
                          (F)     (DEG/KT/KT) (MB)    (MI)  (FT/S)
HARRISON CRIB              75      30/ 10/ 12   N/A
BURNHAM HARBOR             76      10/  5/  9   N/A
CALUMET HARBOR             76      10/  6/ 10   N/A
BURNS HARBOR               75      50/  7/  8 1015.9R
MICHIGAN CITY              75      30/  9/ 11   N/A
MICHIGAN CITY 6N           76 76   40/ 10/ 12   N/A           2/ 2
ST. JOSEPH                 75 74   50/ 10/ 14   N/A           2/ 2
$$

ILZ025>027-034>036-040-047-049-050-058-095>099-280200-
WEST-CENTRAL ILLINOIS

CITY           SKY/WX    TMP DP  RH WIND       PRES   REMARKS
QUINCY         LGT RAIN  72  70  93 NW5       29.98F
$$

ILZ028>032-037-038-041>044-048-051>054-059>061-280200-
CENTRAL ILLINOIS

CITY           SKY/WX    TMP DP  RH WIND       PRES   REMARKS
DECATUR        MOCLDY    80  75  84 NE3       29.97R HX  85
PEORIA         CLOUDY    82  73  74 CALM      29.98R HX  87
SPRINGFIELD    CLOUDY    84  75  74 CALM      29.97R HX  92
TAYLORVILLE    NOT AVBL
$$

ILZ033-039-045-046-055>057-062-063-280200-
EAST-CENTRAL ILLINOIS

CITY           SKY/WX    TMP DP  RH WIND       PRES   REMARKS
CHAMPAIGN      MOCLDY    78  73  84 CALM      29.97R HX  81
MATTOON        PTCLDY    80  73  79 NE5       29.95R HX  84
$$

ILZ079-100>102-280200-
SOUTHWEST ILLINOIS

CITY           SKY/WX    TMP DP  RH WIND       PRES   REMARKS
BELLEVILLE     CLOUDY    79  76  92 SE1       29.92R HX  82
CAHOKIA*       CLOUDY    81  74  79 CALM      29.92R HX  86
$$

ILZ064>066-069>071-074>076-080>082-084>086-088>090-092>094-280200-
SOUTH-CENTRAL ILLINOIS

CITY           SKY/WX    TMP DP  RH WIND       PRES   REMARKS
CARBONDALE     CLOUDY    77  72  84 S6        29.94S
MT. VERNON     CLOUDY    79  72  78 CALM      29.95R HX  82
$$

ILZ067-068-072-073-078-083-087-091-280200-
SOUTHEAST ILLINOIS

CITY           SKY/WX    TMP DP  RH WIND       PRES   REMARKS
LAWRENCEVILLE  PTCLDY    84  78  82 CALM      29.93R HX  95
$$

ABBREVIATIONS USED IN REMARKS
   TC - TEMPERATURE IN CELSIUS
  WCI - WIND CHILL INDEX
   HX - HEAT INDEX
  VSB - VISIBILITY
$$



USA.gov is the U.S. government's official web portal to all federal, state and local government web resources and services.